Regional Weather Roundup
Issued by NWS

Home | Current Version | Previous Version | Text Only | Print | Product List | Glossary On
Versions: 1 2 3 4 5 6 7 8 9 10 11 12 13 14 15 16 17 18 19 20 21 22 23 24 25 26 27 28 29 30 31 32 33 34 35 36 37 38 39 40 41 42 43 44 45 46 47 48 49 50
657
ASUS43 KTOP 012308
RWRKS

WEATHER ROUNDUP FOR KANSAS
NATIONAL WEATHER SERVICE GOODLAND KS
600 PM CDT SUN MAY 01 2016

NOTE:  "FAIR" INDICATES FEW OR NO CLOUDS BELOW 12,000 FEET WITH NO
SIGNIFICANT WEATHER AND/OR OBSTRUCTIONS TO VISIBILITY.

KSZ001>006-013>018-027>032-041>047-020000-
NORTHWEST KANSAS

CITY           SKY/WX    TMP DP  RH WIND       PRES   REMARKS
GOODLAND       CLOUDY    52  30  43 N17G29    30.19F
HAYS           CLOUDY    48  34  57 N10       30.17F
HILL CITY      CLOUDY    51  39  63 NE13      30.19R
RUSSELL        CLOUDY    48  40  73 NE13      30.16S
$$

KSZ061>065-074>080-084>089-020000-
SOUTHWEST KANSAS

CITY           SKY/WX    TMP DP  RH WIND       PRES   REMARKS
DODGE CITY     CLOUDY    46  38  73 N18       30.16F
ELKHART          N/A     44  38  79 N8          N/A
GARDEN CITY    CLOUDY    47  38  71 N12       30.17F
GREAT BEND     CLOUDY    48  37  66 N16       30.15F
LIBERAL        CLOUDY    46  37  71 N14       30.18F
PRATT          CLOUDY    47  38  70 N16       30.13F
$$

KSZ066>073-081>083-090>101-020000-
SOUTHEAST KANSAS

CITY           SKY/WX    TMP DP  RH WIND       PRES   REMARKS
CHANUTE        PTSUNNY   61  46  57 NW10      30.05R
COFFEYVILLE    PTSUNNY   60  46  59 NW13      30.07R
HUTCHINSON     CLOUDY    52  41  66 N15       30.13S
MEDICINE LODGE   N/A     50  42  74 N13       30.11F
NEWTON         CLOUDY    50  39  66 N12       30.14R
PARSONS        CLOUDY    61  48  62 NW9       30.06S
WICHITA INTL   CLOUDY    53  42  66 N17       30.10F
WICHITA JABRA  CLOUDY    52  43  71 N13       30.10F
WICHITA MCCONL PTSUNNY   52  43  71 N14       30.09F
WINFIELD       CLOUDY    54  44  69 NW18      30.09F
$$

KSZ007>012-019>026-033>040-048>060-102>105-020000-
NORTHEAST KANSAS

CITY           SKY/WX    TMP DP  RH WIND       PRES   REMARKS
CONCORDIA      CLOUDY    48  40  73 N13       30.15R
EMPORIA        CLOUDY    54  45  71 NW15G23   30.08R
LAWRENCE       PTSUNNY   55  46  71 NW17      30.08R
MANHATTAN      CLOUDY    52  42  69 N8        30.12S
MARYSVILLE     CLOUDY    46  43  87 N12       30.14R
OLATHE IND     MOSUNNY   58  47  66 NW14      30.06R
OLATHE EXE     CLOUDY    58  46  64 N14       30.04F
SALINA         CLOUDY    52  42  69 N14       30.15R
TOPEKA BILLARD CLOUDY    53  45  74 NW10      30.10R
TOPEKA FORBES  CLOUDY    55  45  68 NW14      30.09R
$$




USA.gov is the U.S. government's official web portal to all federal, state and local government web resources and services.